Weather History for Wolf Point, MT

Change the Weather History Date:

Thursday, April 3, 2014

  Actual Average Record
Temperature  
Mean Temperature 34 °F -  
Max Temperature 48 °F 53 °F 66 °F (2012)
Min Temperature 20 °F 25 °F 0 °F (2002)
Degree Days  
Heating Degree Days 31    
Cooling Degree Days 0    
Moisture  
Dew Point 23 °F    
Average Humidity 67    
Maximum Humidity 85    
Minimum Humidity 37    
Precipitation  
Precipitation 0.00 in 0.02 in 0.20 in (2001)
Month to date precipitation 0.00 0.06  
Year to date precipitation 0.38 1.04  
Sea Level Pressure  
Sea Level Pressure 30.07 in    
Wind  
Wind Speed 6 mph (NNW)    
Max Wind Speed 13 mph    
Max Gust Speed 16 mph    
Visibility 10 miles    
Events      
T = Trace of Precipitation, MM = Missing Value Source: NWS Daily Summary

Daily Weather History Graph

Daily Weather History Graph

Search for Another Location

Airport:

Trip Planner

Search our weather history database for the weather conditions in past years. The results will help you decide how hot, cold, wet, or windy it might be!

Date:

Astronomy

Apr. 03, 2014 Rise Set
Actual Time 6:36 AM MDT 7:35 PM MDT
Civil Twilight 6:04 AM MDT 8:07 PM MDT
Nautical Twilight 5:26 AM MDT 8:45 PM MDT
Astronomical Twilight 4:46 AM MDT 9:25 PM MDT
Moon 8:52 AM MDT (4/3) No Moon Set
Length of Visible Light 14h 02m
Length of Day
12h 59m
Waxing Crescent, 18% of the Moon is Illuminated
Apr 3
Waxing Crescent
Apr 7
First Quarter
Apr 15
Full
Apr 22
Last Quarter
Apr 29
New

Hourly Weather History & Observations

Time (MDT) Temp. Windchill Dew Point Humidity Pressure Visibility Wind Dir Wind Speed Gust Speed Precip Events Conditions
12:53 AM 28.0 °F 20.8 °F 23.0 °F 81% 30.03 in 10.0 mi East 6.9 mph - N/A   Overcast
1:53 AM 28.0 °F 22.8 °F 23.0 °F 81% 30.02 in 10.0 mi ENE 4.6 mph - N/A   Overcast
2:53 AM 28.0 °F 22.8 °F 23.0 °F 81% 30.02 in 10.0 mi NNE 4.6 mph - N/A   Overcast
3:53 AM 28.0 °F 24.2 °F 23.0 °F 81% 30.03 in 10.0 mi NNW 3.5 mph - N/A   Overcast
4:01 AM 28.0 °F - 23.0 °F 81% 29.95 in 10.0 mi Calm Calm - N/A   Overcast
4:09 AM 28.0 °F - 23.0 °F 81% 29.95 in 10.0 mi Calm Calm - N/A   Overcast
4:53 AM 28.0 °F - 23.0 °F 81% 30.04 in 10.0 mi Calm Calm - N/A   Overcast
5:53 AM 28.0 °F - 23.0 °F 81% 30.04 in 10.0 mi Calm Calm - N/A   Overcast
6:53 AM 27.0 °F - 23.0 °F 85% 30.08 in 10.0 mi Calm Calm - N/A   Overcast
7:49 AM 30.2 °F 22.6 °F 24.8 °F 80% 30.01 in 10.0 mi West 8.1 mph - N/A   Overcast
7:53 AM 30.9 °F 23.5 °F 25.0 °F 79% 30.08 in 10.0 mi West 8.1 mph - N/A   Overcast
8:53 AM 32.0 °F 24.8 °F 25.0 °F 75% 30.09 in 10.0 mi West 8.1 mph - N/A   Overcast
9:33 AM 33.1 °F 24.9 °F 25.0 °F 72% 30.02 in 10.0 mi West 10.4 mph - N/A   Overcast
9:53 AM 36.0 °F 29.0 °F 26.1 °F 67% 30.10 in 10.0 mi West 9.2 mph - N/A   Overcast
10:29 AM 37.9 °F 30.9 °F 26.1 °F 62% 30.03 in 10.0 mi West 10.4 mph - N/A   Overcast
10:53 AM 39.9 °F 35.1 °F 26.1 °F 58% 30.09 in 10.0 mi WNW 6.9 mph - N/A   Overcast
11:44 AM 42.1 °F 35.2 °F 26.1 °F 53% 30.03 in 10.0 mi WNW 12.7 mph - N/A   Overcast
11:53 AM 39.9 °F 33.9 °F 25.0 °F 55% 30.10 in 10.0 mi WNW 9.2 mph - N/A   Mostly Cloudy
12:53 PM 44.1 °F 39.5 °F 25.0 °F 47% 30.10 in 10.0 mi NW 8.1 mph - N/A   Scattered Clouds
1:53 PM 44.1 °F 39.5 °F 24.1 °F 45% 30.10 in 10.0 mi NNW 8.1 mph - N/A   Mostly Cloudy
2:53 PM 46.0 °F 40.6 °F 21.9 °F 39% 30.09 in 10.0 mi NW 11.5 mph - N/A   Partly Cloudy
3:53 PM 46.9 °F - 21.9 °F 37% 30.09 in 10.0 mi NNW 11.5 mph 16.1 mph N/A   Mostly Cloudy
4:53 PM 46.9 °F - 23.0 °F 39% 30.09 in 10.0 mi North 11.5 mph - N/A   Clear
5:53 PM 45.0 °F 38.9 °F 21.9 °F 40% 30.12 in 10.0 mi North 12.7 mph - N/A   Clear
6:53 PM 41.0 °F 34.7 °F 23.0 °F 49% 30.14 in 10.0 mi NE 10.4 mph - N/A   Clear
7:53 PM 32.0 °F 24.8 °F 21.0 °F 64% 30.16 in 10.0 mi ENE 8.1 mph - N/A   Clear
9:53 PM 26.1 °F 18.4 °F 19.9 °F 78% 30.17 in 10.0 mi East 6.9 mph - N/A   Clear
10:53 PM 23.0 °F 17.0 °F 18.0 °F 81% 30.16 in 10.0 mi ENE 4.6 mph - N/A   Clear
11:53 PM 21.9 °F - 17.1 °F 82% 30.17 in 10.0 mi Calm Calm - N/A   Clear